Starlink 32540

operational
NORAD ID: 61723 Int'l Des: 2024-196 Owner: SPXS Country: US Constellation: starlink
LEOCIRCULAR

Starlink 32540について

説明を読み込み中...

リアルタイム位置

3D地球を読み込み中...

次回通過

高度履歴

Altitude vs Time

uPlot chart will show altitude changes over time

軌道要素

1 61723U 24196S 25259.04118062 -.00000421 00000-0 -20899-5 0 9998
2 61723 53.1588 156.7557 0001122 88.8051 271.3078 15.30182275 50910
Epoch: Sep 16, 2025 • Age: 18 hours

現在のステータス

高度 480.6 km
速度 7.63 km/s
衛星直下点 51.26°N, 52.83°W
打ち上げ日 Oct 30, 2024
運用期間 0.8 years
タイプ internet

技術仕様

分類 Payload
質量 730.00 kg
乾燥質量 700.00 kg
総質量 730.00 kg
長さ 0.30 m
直径 4.10 m
スパン 29.00 m
形状 Box + pan
製造者 SPXS
バスタイプ Starlink V2M
フェーズステータス In Orbit
所有者/国 SPXS/US

大規模コンステレーション

Loading constellations...